Погода Приморско-Ахтарск

Погода Приморско-Ахтарск : погода сейчас, прогноз погоды и архив. Всё, что Вы хотите узнать о погоде Приморско-Ахтарск!

Хотите узнать прогноз погоды Приморско-Ахтарск? Тогда Вам сюда: Погода Приморско-Ахтарск

Поиск расширенной информации на нашем сайте:

Другие новости

Новости СМИ2

Главная страница сайта

Новости сайта

02.10.2013

Напоминаем, что на нашем новом сайте вы можете получить высокодетализированные прогнозы погоды по пунктам России, СНГ и мира (включающие важные для авиации метеовеличины, такие как направление и скорость ветра, видимость, явления погоды, количество и форма облачности, нижняя и верхняя граница облачности), а также ознакомиться с разнообразными материалами по авиационной метеорологии и подборкой полезных ссылок на эту тему.

Сайт Метеоцентр.Азия посвящён разработке технологий оптимизации авиаметеорологического обслуживания, включая проектирование и перспективное создание нескольких автоматизированных авиаметеорологических систем:
- система выпуска высокодетальных прогностических карт явлений погоды для нижнего воздушного пространства по России и ближнему зарубежью;
- система верификации прогнозов TAF (выпускаемых синоптиками официальных АМСГ РФ и ближнего зарубежья) и AUTOTAF (выпускаемых сайтом Метеоцентр.Азия) - выявление ошибок, онлайн-сопоставление с фактической погодой METAR, автоматическое внесение коррективов в прогнозы при резком отклонении фактической погоды от прогноза, подсчёт оправдываемости прогнозов по элементам и в целом;
- система обработки, анализа и отображения авиаметеорологической информации для применения провайдерами метеорологической информации.

Рекомендуем: Увеличение продаж цена: как правильно применять вилку цен для увеличения продаж.

Погода Приморско-Ахтарск - сегодня

Время (UTC), дата Ветер
(°,м/с) 
Видим.   Явления Облачность Т
(°С)
Тd
(°С)
f(%) Тe
(°С)
Pmin
(гПа)
dP
(гПа)
Po
(мм)
O2
(г/м3)
Тmin Tmax R s Состояние
почвы
06 24.02.17 160 (Ю) 4000 м  дымка  10/0 средняя 
[Ac und]
+4.8 +4 95 +4  1011.7  -0.2  758  300           
09 24.02.17 210 (ЮЗ) 10 км    10/0 средняя, верхняя 
[Ac trans|Ci fib]
+11.4 +6.3 71 +11  1010.8  -0.9  758  292           
12 24.02.17 210 (ЮЗ) 4{11}  10 км    10/0 средняя, верхняя 
[Ac trans|Ci fib]
+13.3 +6.3 63 +13  1009.9  -0.9  757  290           
15 24.02.17 210 (ЮЗ) 4-12{12}  10 км    10/4 600 м средняя 
[Sc|Ac cast]
+10.1 +5.6 74 +9  1010.4  0.5  757  293    +13.7       
18 24.02.17 210 (ЮЗ) 3{12}  10 км    10/10 600 м 
[Sc]
+8.6 +4.5 75 +8  1010.9  0.5  758  295           
21 24.02.17 200 (Ю) 3{10}  10 км    10/10 600 м 
[Sc]
+8.6 +3 68 +8  1010.9  758  296           
00 25.02.17 200 (Ю) 10 км    10/10 600 м 
[Sc]
+8 +2.9 70 +8  1011.3  0.3  758  296           
03 25.02.17 200 (Ю) 10 км    10/10 600 м 
[Sc]
+7.6 +3.6 76 +7  1011.5  0.2  758  297  +7         
06 25.02.17 210 (ЮЗ) 3{12}  10 км    10/10 600 м 
[Sc]
+9 +5.5 79 +8  1012.1  0.6  759  295           
09 25.02.17 200 (Ю) 3{10}  10 км    10/10 600 м 
[Sc]
+10.1 +6.1 76 +10  1011.2  -0.9  758  294           
12 25.02.17 230 (ЮЗ) 5-12{14}  10 км  слаб. ливневой дождь  10/10 600 м кучево-дожд. 
[Cb calv]
+9.6 +5.8 77 +8  1010.4  -0.8  757  294           
15 25.02.17 250 (З) 4-11{15}  4000 м  слаб. ливневой дождь  10/10 600 м кучево-дожд. 
[Cb calv]
+5.6 +4.4 92 +4  1010.8  0.4  758  298    +10.4  10     
18 25.02.17 290 (З) 4{11}  4000 м  слаб. ливневой дождь со снегом  10/10 600 м кучево-дожд. 
[Cb calv]
+1.2 +0.5 95 -1  1015  4.2  761  305           
21 25.02.17 290 (З) 3{11}  4000 м  дымка{ливн. осадки}  8/3 600 м средняя 
[Sc diur, vesp|Ac As]
+1.2 -0.6 88 1019.5  4.4  764  307           
00 26.02.17 270 (З) 4000 м  дымка{ливн. осадки}  ясно 
-0.1 -1.3 92 -2  1022.2  2.7  766  309           
03 26.02.17 250 (З) 4000 м  дымка  ясно 
-0.3 -1.7 90 -1  1024.4  2.2  768  310  -0.5       
06 26.02.17 270 (З) 10 км    ясно 
+0.9 -1.5 84 -1  1026.5  2.1  770  309  -0.6         
09 26.02.17 270 (З) 3{10}  10 км    10/0 верхняя 
[Ci sp]
+3.4 -1.6 70 +2  1027.8  1.3  770  307           
12 26.02.17 270 (З) 10 км    10/0 верхняя 
[Ci sp]
+4.4 -2.5 61 +4  1027.3  -0.5  770  306           
15 26.02.17 240 (ЮЗ) 10 км    10/0 верхняя 
[Ci sp]
+1.5 -5.4 60 +1  1026.8  -0.5  770  309    +4.7       
18 26.02.17 220 (ЮЗ) 10 км    10/0 верхняя 
[Ci sp]
+1.8 -2.9 71 +3  1026.4  769  308           
21 26.02.17 190 (Ю) 10 км    10/0 средняя 
[Ac trans]
+1.6 -2.4 75 +2  1025  -1.4  768  308           
00 27.02.17 210 (ЮЗ) 10 км    10/0 средняя 
[Ac trans]
+2.4 -0.9 79 +3  1023.7  -1.2  767  307           
03 27.02.17 200 (Ю) 10 км    10/0 средняя 
[Ac trans]
+2.2 -1.5 76 +3  1023.4  -0.3  767  307  +1.3         
06 27.02.17 190 (Ю) 10 км    10/10 600 м 
[Sc]
+3 -1.4 73 +4  1023.3  -0.1  767  306           
Время (UTC), дата Ветер
(°,м/с) 
Видим.   Явления Облачность Т
(°С)
Тd
(°С)
f(%) Тe
(°С)
Pmin
(гПа)
dP
(гПа)
Po
(мм)
O2
(г/м3)
Тmin Tmax R s Состояние
почвы

Для получения пояснительной информации подведите курсор к названию столбца.

ПОГОДА Приморско-Ахтарск - архив

Всё, что Вы хотите узнать о погоде Приморско-Ахтарск - удобно и подробно!

Выберите нужную дату (начиная с 1 января 2015* года) и нажмите кнопку "Найти".
Будут отображены архивные сводки погоды по пункту Приморско-Ахтарск, начиная с указанной даты.


Отображать данные в формате CSV (для использования в таблицах Excel)


Внимание! Наш архив погоды предназначен исключительно для личного некоммерческого использования в познавательных целях. Если Вам необходимы официальные справки о состоянии погоды (для производственных, юридических, коммерческих и т.п. целей), обращайтесь в органы Росгидромета.

*Примечание: данная дата относится к архиву по метеостанциям СССР (Россия, СНГ, Балтия).
Архив по метеостанциям Зарубежной Европы и Азии (кроме Китая) хранится 10 дней, по другим регионам земного шара (Китай, Африка, Америка, Австралия, Океания) - 1 день.

Приморско-Ахтарск - район местоположения метеостанции


Название, широта, долгота, высота метеостанции:
Приморско-Ахтарск 46°ш. 38.2°д. 5 м над ур. моря [Российская Федерация]

Дополнительная информация

В oтличие oт бoльшинства пoгoдных сайтoв мы публикуем пoдрoбную метеoинфoрмацию в детальнoм прoфессиoнальнoм фoрмате.

Характеристики температуры и влажнoсти вoздуха измеряются на высoте 2 м в тени вдали oт зданий и деревьев.
Скoрoсть ветра измеряется на высoте 10 м (на урoвне рoста челoвека скoрoсть ветра ниже в 1.5-2 раза). Если метеoстанция нахoдится в гoрoде или в лесу, тo скoрoсть ветра занижена на 2-4 м/с пo сравнению с oткрытым местoм. Скoрoсть ветра над акватoриями крупных рек и oзёр, а также на вершинах хoлмoв на 2-5 м/с выше, чем в oбычных услoвиях.
Атмoсфернoе давление в разных тoчках местнoсти мoжет значительнo oтличаться oт давления на метеoстанции, в зависимoсти oт услoвий рельефа (при пoдъёме на 10 м давление пoнижается примернo на 1 мм рт.ст.).